Location: Larrial
(48.2758°N, 4.5331°W)
Time: 09:14:28
(UTC+00:00)

Meteor 2-1 Rocket - Pass Details

Date: 09 April 2020
Orbit: 828 x 908 km, 81.3° (Epoch: 01 June)

Event Time Altitude Azimuth Distance (km) Brightness Sun altitude
Exits shadow 21:23:24 20° 191° (S) 1,953 5.8 -21.7°
Maximum altitude 21:27:37 88° 280° (W) 915 4.3 -22.2°
Drops below altitude 10° 21:33:36 10° 11° (NNE) 2,605 7.1 -22.9°
Sets 21:36:05 0° 12° (NNE) 3,549 7.9 -23.2°
